EUTELSAT 7 WEST A

Last updated on Thu Mar 05 2026 00:02:56 GMT+0000 (Coordinated Universal Time)

1 37816U 11051A 26063.38767026 -.00000072 00000+0 00000+0 0 9997 2 37816 0.0689 8.1453 0001233 234.6169 51.6080 1.00271848 52829
UTC large
Height (km)
Speed (km/s)
/
Latitude / Longitude
Inclination (degrees)
Orbital Period (minutes)
Azimuth
Elevation
Range (km)
Doppler Factor

Next 0 passes for location: London (51.5072 / 0.1276)

Sorry there are no passes over London.